This demonstration page uses our WeatherBlox Daily Observations layout. Learn more.

Left ArrowRight Arrow

30.21309, -93.2044

Hourly Observations for May 8, 2015

Temp ( °F °C ) Dew Point ( °F °C ) Humidity (%) Winds ( mph kmh ) Pressure ( in mb ) Visibility ( mi km ) Precip ( " mm )
12:15 am 00:15 Partly Cloudy 73 22.8 71 21.8 94 94 SSE 6 9 30.00 1016 10 16 0.00 0.00
12:35 am 00:35 Partly Cloudy 73 23 72 22 94 94 SSE 6 9 30.00 1016 10 16 0.00 0.00
12:55 am 00:55 Partly Cloudy 73 22.7 71 21.9 95 95 SE 8 13 29.97 1015 10 16 0.00 0.00
1:15 am 01:15 Partly Cloudy 73 22.9 72 22 95 95 S 6 9 30.00 1016 10 16 0.00 0.00
1:35 am 01:35 Partly Cloudy 74 23.1 72 22.2 95 95 S 7 11 29.97 1015 10 16 0.00 0.00
1:55 am 01:55 Partly Cloudy 73 22.5 71 21.8 96 96 SE 6 9 29.97 1015 10 16 0.00 0.00
2:15 am 02:15 Mostly Cloudy 73 22.7 72 22.1 96 96 SE 7 11 29.97 1015 10 16 0.00 0.00
2:35 am 02:35 Cloudy 73 22.9 72 22.1 95 95 SE 7 11 29.97 1015 10 16 0.00 0.00
2:55 am 02:55 Cloudy 74 23.1 72 22.3 95 95 SE 6 9 29.97 1015 10 16 0.00 0.00
3:15 am 03:15 Cloudy 73 23 72 22.3 96 96 SE 7 11 29.97 1015 10 16 0.00 0.00
3:35 am 03:35 Cloudy 73 23 72 22.2 95 95 SE 6 9 29.97 1015 10 16 0.00 0.00
3:55 am 03:55 Cloudy 73 22.8 72 22.2 96 96 SE 7 11 29.97 1015 10 16 0.00 0.00
4:15 am 04:15 Cloudy 73 22.8 72 22.3 97 97 SE 6 9 29.97 1015 7 11 0.00 0.00
4:35 am 04:35 Cloudy 74 23.1 73 22.5 96 96 SE 7 11 29.97 1015 10 16 0.00 0.00
4:55 am 04:55 Cloudy 73 23 73 22.5 97 97 SE 6 9 29.97 1015 10 16 0.00 0.00
5:15 am 05:15 Cloudy 73 22.9 72 22.4 97 97 ESE 7 11 29.97 1015 7 11 0.00 0.00
6:00 am 06:00 Mostly Cloudy 73 23 73 23 100 100 SE 12 19 29.97 1015 10 16 0.00 0.00
6:50 am 06:50 Mostly Cloudy 73 23 73 23 100 100 SE 12 19 29.97 1015 10 16 0.00 0.00
7:45 am 07:45 Mostly Cloudy 75 24 73 23 94 94 SE 12 19 30.00 1016 10 16 0.00 0.00
8:45 am 08:45 Mostly Cloudy 77 25 73 23 89 89 SSE 12 19 30.03 1017 7 11 0.00 0.00
9:50 am 09:50 Mostly Cloudy 81 27 72 22 74 74 SSE 16 26 30.00 1016 10 16 0.00 0.00
11:50 am 11:50 Cloudy 84 29 72 22 66 66 SSE 16 26 30.03 1017 10 16 0.00 0.00
12:50 pm 12:50 Cloudy 84 29 72 22 66 66 SSE 16 26 30.03 1017 10 16 0.00 0.00
1:50 pm 13:50 Cloudy 84 29 72 22 66 66 S 12 19 30.03 1017 10 16 0.00 0.00
8:50 pm 20:50 Partly Cloudy 75 24 72 22 89 89 SSE 7 11 30.00 1016 10 16 0.00 0.00
9:50 pm 21:50 Partly Cloudy 75 24 73 23 94 94 SSE 6 9 30.00 1016 10 16 0.00 0.00
10:15 pm 22:15 Mostly Cloudy 75 24 73 22.7 92 92 SSE 6 9 30.00 1016 10 16 0.00 0.00
10:35 pm 22:35 Cloudy 75 23.9 73 22.9 94 94 SSE 6 9 30.00 1016 10 16 0.00 0.00
10:55 pm 22:55 Cloudy 75 24 73 23 94 94 SE 6 9 30.00 1016 10 16 0.00 0.00
11:15 pm 23:15 Cloudy 75 24.1 73 23 94 94 SSE 3 6 30.00 1016 10 16 0.00 0.00
11:35 pm 23:35 Cloudy 75 24.1 73 23 94 94 SE 9 15 30.00 1016 10 16 0.00 0.00
11:55 pm 23:55 Cloudy 76 24.3 73 23 92 92 SE 10 17 30.00 1016 10 16 0.00 0.00

Powered by AerisWeather